• In Hungary
  • List of Countries
  • For 7 days
  • Water Temperature
  • Satellite Maps
  • Weather Map
  • News
  • Weather Widgets
  • user-avatar
    Login

    Hourly Weather Tbilisi

    Today, 19 September, Wednesday

    Time Temperature Precipitation Wind Pressure Humidity
    00:00 +16°C° 0.1 mm 1 mps 705 mmHg 78%
    01:00 +15°C° 0.1 mm 1 mps 705 mmHg 78%
    02:00 +15°C° 0.1 mm 1 mps 705 mmHg 79%
    03:00 +15°C° 0.1 mm 1 mps 705 mmHg 79%
    04:00 +15°C° 0 mm 1 mps 705 mmHg 79%
    05:00 +15°C° 0 mm 1 mps 705 mmHg 80%
    06:00 +14°C° 0 mm 1 mps 705 mmHg 80%
    07:00 +16°C° 0 mm 1 mps 705 mmHg 74%
    08:00 +18°C° 0 mm 1 mps 705 mmHg 68%
    09:00 +20°C° 0 mm 1 mps 705 mmHg 61%
    10:00 +21°C° 0 mm 1 mps 705 mmHg 56%
    11:00 +23°C° 0 mm 1 mps 705 mmHg 52%
    12:00 +24°C° 0 mm 2 mps 705 mmHg 47%
    13:00 +25°C° 0 mm 2 mps 705 mmHg 45%
    14:00 +25°C° 0 mm 2 mps 705 mmHg 43%
    15:00 +26°C° 0 mm 2 mps 705 mmHg 41%
    16:00 +24°C° 0 mm 2 mps 705 mmHg 46%
    17:00 +23°C° 0 mm 2 mps 705 mmHg 51%
    18:00 +20°C° 0 mm 2 mps 705 mmHg 56%
    19:00 +20°C° 0 mm 1 mps 705 mmHg 60%
    20:00 +19°C° 0 mm 1 mps 705 mmHg 65%
    21:00 +18°C° 0 mm 1 mps 705 mmHg 69%
    22:00 +16°C° 0 mm 1 mps 705 mmHg 70%
    23:00 +16°C° 0 mm 1 mps 705 mmHg 70%

    Tomorrow, 20 September, Thursday

    Time Temperature Precipitation Wind Pressure Humidity
    00:00 +16°C° 0 mm 1 mps 705 mmHg 71%
    01:00 +15°C° 0.1 mm 1 mps 705 mmHg 71%
    02:00 +15°C° 0.1 mm 1 mps 705 mmHg 71%
    03:00 +15°C° 0.1 mm 1 mps 705 mmHg 71%
    04:00 +15°C° 0 mm 1 mps 705 mmHg 71%
    05:00 +15°C° 0 mm 1 mps 705 mmHg 72%
    06:00 +15°C° 0 mm 1 mps 705 mmHg 73%
    07:00 +16°C° 0 mm 1 mps 705 mmHg 70%
    08:00 +19°C° 0 mm 1 mps 706 mmHg 68%
    09:00 +20°C° 0 mm 1 mps 706 mmHg 65%
    10:00 +20°C° 0 mm 2 mps 706 mmHg 60%
    11:00 +23°C° 0 mm 2 mps 706 mmHg 55%
    12:00 +24°C° 0 mm 3 mps 705 mmHg 50%
    13:00 +25°C° 0 mm 3 mps 705 mmHg 48%
    14:00 +25°C° 0 mm 3 mps 705 mmHg 46%
    15:00 +26°C° 0 mm 3 mps 705 mmHg 44%
    16:00 +24°C° 0 mm 3 mps 705 mmHg 51%
    17:00 +21°C° 0 mm 2 mps 704 mmHg 57%
    18:00 +19°C° 0 mm 2 mps 704 mmHg 63%
    19:00 +19°C° 0 mm 2 mps 705 mmHg 67%
    20:00 +19°C° 0 mm 1 mps 705 mmHg 70%
    21:00 +18°C° 0 mm 1 mps 705 mmHg 74%
    22:00 +18°C° 0.1 mm 1 mps 705 mmHg 76%
    23:00 +16°C° 0.1 mm 1 mps 705 mmHg 78%

    Day after tomorrow, 21 September, Friday

    Time Temperature Precipitation Wind Pressure Humidity
    00:00 +16°C° 0.1 mm 1 mps 705 mmHg 80%
    01:00 +16°C° 0.1 mm 1 mps 705 mmHg 80%
    02:00 +15°C° 0.1 mm 1 mps 705 mmHg 81%
    03:00 +15°C° 0.1 mm 1 mps 704 mmHg 82%
    04:00 +15°C° 0 mm 1 mps 704 mmHg 83%
    05:00 +15°C° 0 mm 1 mps 704 mmHg 83%
    06:00 +14°C° 0 mm 1 mps 704 mmHg 84%
    07:00 +16°C° 0 mm 1 mps 704 mmHg 76%
    08:00 +19°C° 0 mm 1 mps 705 mmHg 68%
    09:00 +21°C° 0 mm 1 mps 705 mmHg 61%
    10:00 +21°C° 0 mm 2 mps 705 mmHg 55%
    11:00 +24°C° 0 mm 2 mps 704 mmHg 50%
    12:00 +25°C° 0 mm 2 mps 704 mmHg 44%
    13:00 +26°C° 0 mm 2 mps 704 mmHg 42%
    14:00 +26°C° 0 mm 3 mps 704 mmHg 41%
    15:00 +27°C° 0 mm 3 mps 704 mmHg 39%
    16:00 +25°C° 0 mm 2 mps 704 mmHg 44%
    17:00 +23°C° 0 mm 2 mps 704 mmHg 49%
    18:00 +21°C° 0 mm 1 mps 704 mmHg 55%
    19:00 +20°C° 0 mm 1 mps 704 mmHg 58%
    20:00 +19°C° 0 mm 1 mps 704 mmHg 61%
    21:00 +19°C° 0 mm 1 mps 704 mmHg 64%
    22:00 +18°C° 0 mm 1 mps 704 mmHg 66%
    23:00 +18°C° 0 mm 1 mps 704 mmHg 67%

    22 September, Saturday

    Time Temperature Precipitation Wind Pressure Humidity
    00:00 +16°C° 0 mm 1 mps 704 mmHg 69%
    01:00 +16°C° 0 mm 1 mps 704 mmHg 70%
    02:00 +15°C° 0 mm 1 mps 704 mmHg 70%
    03:00 +15°C° 0 mm 1 mps 704 mmHg 71%
    04:00 +15°C° 0 mm 1 mps 704 mmHg 70%
    05:00 +15°C° 0 mm 1 mps 704 mmHg 68%
    06:00 +15°C° 0 mm 1 mps 704 mmHg 67%
    07:00 +18°C° 0 mm 1 mps 704 mmHg 63%
    08:00 +20°C° 0 mm 1 mps 704 mmHg 58%
    09:00 +22°C° 0 mm 1 mps 704 mmHg 53%
    10:00 +24°C° 0 mm 2 mps 704 mmHg 50%
    11:00 +25°C° 0 mm 2 mps 704 mmHg 47%
    12:00 +26°C° 0 mm 3 mps 704 mmHg 44%
    13:00 +27°C° 0.1 mm 3 mps 704 mmHg 43%
    14:00 +27°C° 0.1 mm 3 mps 703 mmHg 42%
    15:00 +27°C° 0.1 mm 3 mps 703 mmHg 41%
    16:00 +26°C° 0.1 mm 3 mps 703 mmHg 47%
    17:00 +24°C° 0.1 mm 2 mps 703 mmHg 53%
    18:00 +21°C° 0.1 mm 2 mps 703 mmHg 60%
    19:00 +20°C° 0.4 mm 2 mps 703 mmHg 64%
    20:00 +20°C° 0.4 mm 2 mps 703 mmHg 69%
    21:00 +20°C° 0.4 mm 1 mps 704 mmHg 73%
    22:00 +18°C° 0.5 mm 2 mps 704 mmHg 74%
    23:00 +18°C° 0.5 mm 2 mps 704 mmHg 74%

    23 September, Sunday

    Time Temperature Precipitation Wind Pressure Humidity
    00:00 +18°C° 0.5 mm 2 mps 703 mmHg 75%
    01:00 +18°C° 0.2 mm 2 mps 703 mmHg 75%
    02:00 +18°C° 0.2 mm 1 mps 703 mmHg 75%
    03:00 +18°C° 0.2 mm 1 mps 703 mmHg 76%
    04:00 +18°C° 0 mm 1 mps 703 mmHg 76%
    05:00 +18°C° 0 mm 1 mps 703 mmHg 76%
    06:00 +18°C° 0 mm 1 mps 703 mmHg 76%
    07:00 +19°C° 0 mm 1 mps 703 mmHg 72%
    08:00 +20°C° 0 mm 1 mps 703 mmHg 68%
    09:00 +21°C° 0 mm 1 mps 703 mmHg 64%
    10:00 +22°C° 0.3 mm 1 mps 702 mmHg 59%
    11:00 +24°C° 0.3 mm 1 mps 702 mmHg 55%
    12:00 +26°C° 0.3 mm 2 mps 702 mmHg 50%
    13:00 +26°C° 0.1 mm 1 mps 702 mmHg 48%
    14:00 +26°C° 0.1 mm 1 mps 701 mmHg 46%
    15:00 +27°C° 0.1 mm 1 mps 701 mmHg 44%
    16:00 +25°C° 0.3 mm 1 mps 701 mmHg 50%
    17:00 +24°C° 0.3 mm 1 mps 701 mmHg 55%
    18:00 +22°C° 0.3 mm 1 mps 701 mmHg 60%
    19:00 +21°C° 0.1 mm 1 mps 701 mmHg 64%
    20:00 +20°C° 0.1 mm 1 mps 702 mmHg 67%
    21:00 +18°C° 0.1 mm 2 mps 702 mmHg 71%
    22:00 +17°C° 0 mm 2 mps 702 mmHg 72%
    23:00 +17°C° 0 mm 2 mps 701 mmHg 74%

    24 September, Monday

    Time Temperature Precipitation Wind Pressure Humidity
    00:00 +16°C° 0 mm 2 mps 701 mmHg 76%
    01:00 +16°C° 0 mm 2 mps 701 mmHg 77%
    02:00 +15°C° 0 mm 2 mps 701 mmHg 78%
    03:00 +15°C° 0 mm 2 mps 701 mmHg 78%
    04:00 +15°C° 0 mm 2 mps 701 mmHg 78%
    05:00 +14°C° 0 mm 2 mps 700 mmHg 77%
    06:00 +14°C° 0 mm 2 mps 700 mmHg 77%
    07:00 +16°C° 0 mm 2 mps 701 mmHg 69%
    08:00 +19°C° 0 mm 3 mps 701 mmHg 61%
    09:00 +21°C° 0 mm 3 mps 701 mmHg 53%
    10:00 +22°C° 0 mm 3 mps 700 mmHg 48%
    11:00 +25°C° 0 mm 4 mps 700 mmHg 43%
    12:00 +26°C° 0 mm 4 mps 700 mmHg 37%
    13:00 +26°C° 0 mm 5 mps 700 mmHg 38%
    14:00 +26°C° 0 mm 5 mps 700 mmHg 38%
    15:00 +26°C° 0 mm 5 mps 700 mmHg 39%
    16:00 +23°C° 0 mm 5 mps 699 mmHg 46%
    17:00 +21°C° 0 mm 4 mps 699 mmHg 53%
    18:00 +19°C° 0 mm 3 mps 699 mmHg 60%
    19:00 +18°C° 0 mm 3 mps 699 mmHg 65%
    20:00 +17°C° 0 mm 2 mps 699 mmHg 69%
    21:00 +16°C° 0 mm 2 mps 699 mmHg 74%
    22:00 +15°C° 0 mm 2 mps 699 mmHg 76%
    23:00 +15°C° 0 mm 2 mps 699 mmHg 77%
    Show more